This demonstration page uses our WeatherBlox Daily Observations layout. Learn more.

Left ArrowRight Arrow

39.95238, -75.16362

Hourly Observations for December 6, 2022

Temp ( °F °C ) Dew Point ( °F °C ) Humidity (%) Winds ( mph kmh ) Pressure ( in mb ) Visibility ( mi km ) Precip ( " mm )
12:54 am 00:54 Partly Cloudy 34 1.1 27 -2.8 75 75 NE 3 6 30.29 1026 10 16 0.00 0.00
1:54 am 01:54 Cloudy 36 2.2 29 -1.7 75 75 NNE 6 9 30.28 1026 10 16 0.00 0.00
2:54 am 02:54 Mostly Cloudy 35 1.7 30 -1.1 82 82 NE 3 6 30.28 1026 10 16 0.00 0.00
3:54 am 03:54 Partly Cloudy 36 2.2 30 -1.1 79 79 NE 3 6 30.28 1025 10 16 0.00 0.00
4:54 am 04:54 Cloudy 40 4.4 34 1.1 79 79 NE 6 9 30.27 1025 10 16 0.00 0.00
5:25 am 05:25 Cloudy 41 5 34 1.1 76 76 NNE 8 13 30.26 1025 10 16 0.00 0.00
5:54 am 05:54 Cloudy 42 5.6 35 1.7 76 76 ENE 3 6 30.27 1025 10 16 0.00 0.00
6:54 am 06:54 Cloudy 43 6.1 37 2.8 79 79 NE 7 11 30.27 1025 10 16 0.00 0.00
6:58 am 06:58 Cloudy 43 6.1 37 2.8 79 79 NE 5 7 30.27 1025 10 16 0.00 0.00
7:54 am 07:54 Cloudy with Light Rain 43 6.1 39 3.9 86 86 Calm 30.28 1025 10 16 0.01 0.13
8:12 am 08:12 Cloudy with Light Rain 44 6.7 39 3.9 82 82 Calm 30.29 1026 6 10 0.01 0.13
8:32 am 08:32 Cloudy with Light Rain 43 6.1 40 4.4 89 89 ESE 6 9 30.29 1026 7 11 0.02 0.51
8:54 am 08:54 Cloudy 43 6.1 40 4.4 89 89 E 6 9 30.29 1026 9 14 0.02 0.51
9:31 am 09:31 Cloudy with Light Rain 44 6.7 41 5 89 89 Calm 30.29 1026 5 8 0.01 0.13
9:35 am 09:35 Cloudy with Light Rain 44 6.7 41 5 89 89 Calm 30.29 1026 2 3 0.01 0.13
9:42 am 09:42 Cloudy with Light Rain 44 6.7 42 5.6 93 93 ENE 3 6 30.29 1026 2 2 0.01 0.13
9:54 am 09:54 Cloudy with Light Rain 44 6.7 42 5.6 93 93 NE 3 6 30.29 1026 3 5 0.01 0.13
10:03 am 10:03 Cloudy with Light Rain 44 6.7 42 5.6 93 93 Calm 30.29 1026 5 8 0.01 0.13
10:09 am 10:09 Cloudy 45 7.2 43 6.1 93 93 NE 3 6 30.29 1026 7 11 0.01 0.13
10:39 am 10:39 Cloudy with Light Rain 47 8.3 45 7.2 93 93 VRB 3 6 30.28 1025 6 10 0.01 0.13
10:54 am 10:54 Cloudy with Light Rain 47 8.3 46 7.8 97 97 NNE 3 6 30.27 1025 4 6 0.01 0.25
11:07 am 11:07 Cloudy with Light Rain 48 8.9 46 7.8 93 93 NNE 5 7 30.26 1025 3 5 0.01 0.25
11:54 am 11:54 Cloudy with Light Rain 50 10 49 9.4 96 96 E 5 7 30.23 1024 3 5 0.02 0.51
12:05 pm 12:05 Cloudy with Light Rain 51 10.6 50 10 96 96 E 3 6 30.23 1024 5 8 0.01 0.25
12:19 pm 12:19 Cloudy with Light Rain 53 11.7 51 10.6 93 93 SSE 6 9 30.23 1024 7 11 0.01 0.25
12:42 pm 12:42 Cloudy with Light Rain 57 13.9 53 11.7 87 87 SSE 12 19 30.23 1024 6 10 0.01 0.25
12:54 pm 12:54 Cloudy with Light Rain 57 13.9 54 12.2 89 89 SSE 12 19 30.22 1024 3 5 0.01 0.25
1:54 pm 13:54 Cloudy with Light Rain 56 13.3 54 12.2 93 93 SSE 12 19 30.21 1023 4 6 0.06 1.52
2:40 pm 14:40 Cloudy with Rain 56 13.3 55 12.8 97 97 SSE 9 15 30.22 1023 2 3 0.03 0.76
2:54 pm 14:54 Cloudy with Light Rain 56 13.3 55 12.8 97 97 S 8 13 30.22 1023 2 3 0.04 1.02
3:29 pm 15:29 Cloudy with Light Rain 54 12.2 54 12.2 100 100 W 7 11 30.23 1024 1 2 0.01 0.25
3:54 pm 15:54 Cloudy with Rain 54 12.2 53 11.7 97 97 WNW 7 11 30.23 1024 1 2 0.10 2.54
4:42 pm 16:42 Cloudy with Rain 53 11.7 52 11.1 96 96 Calm 30.23 1024 2 3 0.11 2.79
4:48 pm 16:48 Cloudy with Light Rain 54 12 52 11 94 94 Calm 30.23 1024 2 3 0.11 2.79
4:54 pm 16:54 Cloudy with Light Rain 53 11.7 52 11.1 96 96 Calm 30.22 1023 2 3 0.12 3.05
5:50 pm 17:50 Cloudy with Light Rain 55 13 55 13 100 100 SSE 6 9 30.22 1023 3 5 0.03 0.76
5:54 pm 17:54 Cloudy with Light Rain 56 13.3 55 12.8 97 97 SSE 6 9 30.22 1023 3 5 0.03 0.76
6:24 pm 18:24 Cloudy with Mist and Fog 57 13.9 56 13.3 96 96 S 8 13 30.22 1023 4 6 0.01 0.25
6:46 pm 18:46 Cloudy with Mist and Fog 57 13.9 55 12.8 93 93 SSW 7 11 30.22 1023 5 8 0.01 0.25
6:54 pm 18:54 Cloudy with Light Rain 57 13.9 56 13.3 96 96 SSW 6 9 30.22 1023 5 8 0.01 0.25
6:59 pm 18:59 Cloudy with Light Rain 57 13.9 56 13.3 96 96 S 6 9 30.22 1023 4 6 0.01 0.13
7:54 pm 19:54 Cloudy with Light Rain 56 13.3 55 12.8 97 97 WSW 7 11 30.22 1024 3 5 0.02 0.51
8:56 pm 20:56 Cloudy with Light Rain 54 12.2 54 12.2 100 100 SW 7 11 30.22 1023 5 8 0.01 0.13
9:38 pm 21:38 Cloudy with Rain 55 12.8 54 12.2 96 96 SSW 6 9 30.22 1023 3 5 0.04 1.02
9:54 pm 21:54 Cloudy with Light Rain 55 12.8 54 12.2 96 96 SSW 6 9 30.22 1023 3 5 0.06 1.52
10:27 pm 22:27 Cloudy with Light Rain 55 12.8 54 12.2 96 96 SW 5 7 30.22 1023 2 3 0.01 0.25
10:54 pm 22:54 Cloudy with Light Rain 55 12.8 54 12.2 96 96 SW 6 9 30.22 1023 2 3 0.03 0.76
11:14 pm 23:14 Cloudy with Light Rain 54 12.2 54 12.2 100 100 SSW 5 7 30.22 1023 2 2 0.01 0.13
11:54 pm 23:54 Cloudy with Light Rain 54 12.2 53 11.7 97 97 SW 5 7 30.21 1023 1 2 0.03 0.76

Powered by AerisWeather